Regional & State Weather Roundups


891 
ASUS44 KMAF 251910
RWRMAF
MIDLAND AREA WEATHER ROUNDUP
NATIONAL WEATHER SERVICE MIDLAND TX
200 PM CDT THU APR 25 2019
...IN SOUTHWEST TEXAS AND SOUTHEAST NEW MEXICO...
  
CITY           SKY/WX    TMP DP  RH WIND       PRES   REMARKS
ALPINE         MOSUNNY   80  35  19 W7        30.13S                  
ANDREWS        FAIR      82  46  28 W8        29.99S                  
ARTESIA        SUNNY     81  41  24 N12       30.02                   
BIG SPRING     SUNNY     78  51  39 W9        29.99F                  
CARLSBAD       SUNNY     82  44  26 NE5       29.99F                  
DRYDEN           N/A     84  48  28 SW12      29.95F                  
FORT STOCKTON  SUNNY     84  43  23 MISG      30.00S                  
GUAD PASS      SUNNY     78  38  23 W13G26    30.14S                  
HOBBS          MOSUNNY   82  37  20 VRB6      30.02S                  
LAMESA         NOT AVBL                                               
MARFA          SUNNY     78  31  17 W13G20    30.12F                  
MIDLAND AIRPK    N/A     84  52  33 W12       29.99S                  
MIDLAND INTL   SUNNY     82  49  31 W7        29.98S                  
ODESSA         SUNNY     80  46  30 W10       29.99S                  
PECOS          SUNNY     84  48  28 CALM      29.97F                  
PRESIDIO       FAIR      85  39  19 SW7       30.03F                  
SEMINOLE       SUNNY     82  40  21 NE9       30.03S                  
SNYDER         SUNNY     78  56  46 SW7       29.96S                  
WINK           SUNNY     83  45  26 W5        29.97S                  
$$
...OTHER STATIONS IN TEXAS...
  
CITY           SKY/WX    TMP DP  RH WIND       PRES   REMARKS
ABILENE        SUNNY     79  56  45 MISG      29.94R                  
AMARILLO       SUNNY     71  48  43 N24G32    30.06S                  
AUSTIN         MOSUNNY   84  57  39 NW8       29.87F                  
BROWNSVILLE    FAIR      89  62  40 NE9       29.89F                  
CORPUS CHRISTI MOSUNNY   83  62  49 NW17      29.89F                  
DALLAS FTW     MOSUNNY   78  56  46 NW15      29.85R                  
DEL RIO        SUNNY     86  52  30 W6        29.92F                  
EL PASO        MOSUNNY   83  31  15 CALM      30.04F                  
HOUSTON INT    MOSUNNY   82  59  45 NW14      29.84F                  
LUBBOCK        MOSUNNY   80  47  31 N20G28    30.00R                  
SAN ANGELO     SUNNY     81  52  36 SW7       29.94S                  
SAN ANTONIO    MOSUNNY   82  55  39 NW8       29.91S                  
WACO           SUNNY     79  61  53 NW9       29.86S                  
WICHITA FALLS  PTSUNNY   72  51  47 N30G40    29.90R                  
$$
...OTHER LOCATIONS IN NEW MEXICO...
  
CITY           SKY/WX    TMP DP  RH WIND       PRES   REMARKS
ALAMOGORDO     SUNNY     81  32  17 NW8       30.06                   
ALBUQUERQUE    MOSUNNY   73  36  25 NW6       30.13F                  
CANNON AFB     NOT AVBL                                               
CLOVIS         SUNNY     70  47  43 NE29G36   30.10R                  
HOLLOMAN AFB   NOT AVBL                                               
ROSWELL        SUNNY     83  42  23 NE10      30.01S                  
RUIDOSO        SUNNY     68  32  26 N5        30.22S                  
SANTA FE       MOSUNNY   70  28  21 S8        30.16F                  
TRUTH OR CONSE SUNNY     80  30  16 MISG      30.09F                  
TUCUMCARI      SUNNY     75  45  34 NE17G31   30.09F                  
$$